Вернуться в каталог

STARLINK-37848

АктивенСвязьVLEO
NORAD 100049·PAYLOAD·🇺🇸 United States

Запущен Jul 14, 2026 с Cape Canaveral Space Force Station

Loading…

Ближайшие Пролёты (ближайшие 24 часа)

TLE

СвежийSource: Space-Track

Эпоха: Sep 14, 2026, 08:07 UTC

1 A0049U 26161X   26257.33870920 -.00034005  00000-0 -99778-3 0  9990
2 A0049  53.1610  26.5701 0001382  90.6400 269.4761 15.34463442  9667

Отслеживайте STARLINK-37848 в реальном времени с AllMySat

Download on the App Store